Find Starlink 36573

NORAD ID: 67539 Int'l Des: 2026-014 Owner: SPXS Country: US Constellation: starlink operational
LEOCIRCULARRETROGRADE

現在のビュー

3D地球を読み込み中...

Starlink 36573について

説明を読み込み中...

次回通過

Passes for default location (London). Set your location on the main map for personalized predictions.

高度履歴

Loading altitude history...

軌道要素

1 67539U 26014H 26146.27503032 .00025390 00000-0 78635-3 0 9995
2 67539 97.2867 33.3070 0001743 96.6381 263.5060 15.33435500 20671
Epoch: May 26, 2026 • Age: 12 hours

現在のステータス

高度 469.7 km
速度 7.64 km/s
衛星直下点 35.78°N, 61.88°E
打ち上げ日 Jan 22, 2026
運用期間 0.3 years
タイプ internet

技術仕様

分類 Payload
質量 575.00 kg
乾燥質量 530.00 kg
総質量 575.00 kg
長さ 0.30 m
直径 4.10 m
スパン 29.00 m
形状 Box + pan
製造者 SPXS
バスタイプ Starlink V2MO
フェーズステータス In Orbit
所有者/国 SPXS/US

Most Searched